Weather History for Kearney, NE

Change the Weather History Date:

Sunday, September 1, 2013

  Actual Average Record
Temperature  
Mean Temperature 75 °F 69 °F  
Max Temperature 86 °F 82 °F 105 °F (1929)
Min Temperature 63 °F 56 °F 38 °F (1908)
Degree Days  
Heating Degree Days 0 1  
Month to date heating degree days 1  
Since 1 July heating degree days 18  
Cooling Degree Days 10 6  
Month to date cooling degree days 6  
Year to date cooling degree days 784  
Growing Degree Days 24 (Base 50)    
Moisture  
Dew Point 55 °F    
Average Humidity 55    
Maximum Humidity 84    
Minimum Humidity 25    
Precipitation  
Precipitation 0.00 in - 1.20 in (1973)
Sea Level Pressure  
Sea Level Pressure 30.03 in    
Wind  
Wind Speed 9 mph (North)    
Max Wind Speed 17 mph    
Max Gust Speed 20 mph    
Visibility 10 miles    
Events Thunderstorm    
T = Trace of Precipitation, MM = Missing Value Source: NWS Daily Summary

Daily Weather History Graph

Daily Weather History Graph

Search for Another Location

Airport:

Trip Planner

Search our weather history database for the weather conditions in past years. The results will help you decide how hot, cold, wet, or windy it might be!

Date:

Astronomy

Sep. 01, 2013 Rise Set
Actual Time 7:03 AM CDT 8:07 PM CDT
Civil Twilight 6:35 AM CDT 8:35 PM CDT
Nautical Twilight 6:01 AM CDT 9:09 PM CDT
Astronomical Twilight 5:26 AM CDT 9:44 PM CDT
Moon 3:25 AM CDT (9/1) 5:46 PM CDT (9/1)
Length of Visible Light 14h 00m
Length of Day
13h 04m
Waning Crescent, 13% of the Moon is Illuminated
Sep 1
Waning Crescent
Sep 5
New
Sep 12
First Quarter
Sep 19
Full
Sep 26
Last Quarter

Hourly Weather History & Observations

Time (CDT) Temp. Heat Index Dew Point Humidity Pressure Visibility Wind Dir Wind Speed Gust Speed Precip Events Conditions
12:15 AM 77.0 °F - 69.8 °F 78% 29.86 in 10.0 mi Calm Calm - N/A   Clear
12:35 AM 78.8 °F - 69.8 °F 74% 29.89 in 10.0 mi West 13.8 mph 21.9 mph N/A Thunderstorm Partly Cloudy
12:55 AM 80.6 °F 83.2 °F 68.0 °F 65% 29.90 in 10.0 mi WNW 11.5 mph 24.2 mph N/A   Scattered Clouds
1:15 AM 77.0 °F - 66.2 °F 69% 29.95 in 10.0 mi WNW 12.7 mph 19.6 mph N/A   Clear
1:35 AM 75.2 °F - 64.4 °F 69% 29.94 in 10.0 mi WNW 12.7 mph 16.1 mph N/A   Partly Cloudy
1:55 AM 75.2 °F - 62.6 °F 65% 29.93 in 10.0 mi West 11.5 mph - N/A   Clear
2:15 AM 75.2 °F - 64.4 °F 69% 29.92 in 10.0 mi NW 15.0 mph - N/A   Clear
2:35 AM 75.2 °F - 64.4 °F 69% 29.92 in 10.0 mi NNW 13.8 mph - N/A   Clear
2:55 AM 73.4 °F - 64.4 °F 73% 29.93 in 10.0 mi NNW 12.7 mph - N/A   Clear
3:15 AM 73.4 °F - 64.4 °F 73% 29.94 in 10.0 mi North 15.0 mph - N/A   Clear
3:35 AM 71.6 °F - 64.4 °F 78% 29.94 in 10.0 mi North 11.5 mph - N/A   Clear
3:55 AM 71.6 °F - 62.6 °F 73% 29.95 in 10.0 mi North 13.8 mph - N/A   Clear
4:15 AM 71.6 °F - 60.8 °F 69% 29.95 in 10.0 mi North 17.3 mph - N/A   Clear
4:35 AM 69.8 °F - 60.8 °F 73% 29.97 in 10.0 mi North 13.8 mph - N/A   Clear
4:55 AM 69.8 °F - 59.0 °F 68% 29.96 in 10.0 mi North 16.1 mph - N/A   Clear
5:15 AM 68.0 °F - 59.0 °F 73% 29.96 in 10.0 mi North 13.8 mph - N/A   Clear
5:35 AM 66.2 °F - 59.0 °F 78% 29.97 in 10.0 mi North 12.7 mph - N/A   Clear
5:55 AM 66.2 °F - 59.0 °F 78% 29.98 in 10.0 mi North 11.5 mph - N/A   Clear
6:15 AM 66.2 °F - 59.0 °F 78% 29.99 in 10.0 mi North 9.2 mph - N/A   Clear
6:35 AM 66.2 °F - 57.2 °F 73% 30.00 in 10.0 mi North 9.2 mph - N/A   Clear
6:55 AM 64.4 °F - 59.0 °F 83% 30.02 in 10.0 mi NNW 6.9 mph - N/A   Clear
7:15 AM 64.4 °F - 59.0 °F 83% 30.04 in 10.0 mi NNW 5.8 mph - N/A   Clear
7:35 AM 64.4 °F - 59.0 °F 83% 30.04 in 10.0 mi North 9.2 mph - N/A   Clear
7:55 AM 64.4 °F - 57.2 °F 77% 30.05 in 10.0 mi North 5.8 mph - N/A   Clear
8:15 AM 64.4 °F - 59.0 °F 83% 30.06 in 10.0 mi NNW 5.8 mph - N/A   Clear
8:35 AM 66.2 °F - 59.0 °F 78% 30.07 in 10.0 mi NNW 5.8 mph - N/A   Clear
8:55 AM 66.2 °F - 59.0 °F 78% 30.08 in 10.0 mi North 6.9 mph - N/A   Clear
9:15 AM 69.8 °F - 59.0 °F 68% 30.08 in 10.0 mi NNW 9.2 mph - N/A   Clear
9:35 AM 69.8 °F - 57.2 °F 64% 30.08 in 10.0 mi North 10.4 mph - N/A   Clear
9:55 AM 71.6 °F - 57.2 °F 60% 30.08 in 10.0 mi North 11.5 mph - N/A   Clear
10:15 AM 73.4 °F - 55.4 °F 53% 30.08 in 10.0 mi North 12.7 mph - N/A   Clear
10:35 AM 75.2 °F - 55.4 °F 50% 30.08 in 10.0 mi NNE 11.5 mph - N/A   Clear
10:55 AM 77.0 °F - 53.6 °F 44% 30.08 in 10.0 mi NNE 12.7 mph 16.1 mph N/A   Clear
11:15 AM 78.8 °F - 53.6 °F 42% 30.08 in 10.0 mi NNE 11.5 mph - N/A   Clear
11:35 AM 78.8 °F - 51.8 °F 39% 30.08 in 10.0 mi NNE 10.4 mph - N/A   Clear
11:55 AM 80.6 °F - 50.0 °F 34% 30.08 in 10.0 mi NNE 12.7 mph - N/A   Clear
12:15 PM 80.6 °F - 50.0 °F 34% 30.08 in 10.0 mi NNE 9.2 mph - N/A   Clear
12:35 PM 80.6 °F - 51.8 °F 37% 30.08 in 10.0 mi North 5.8 mph - N/A   Clear
12:55 PM 80.6 °F - 51.8 °F 37% 30.07 in 10.0 mi North 13.8 mph 17.3 mph N/A   Clear
1:15 PM 82.4 °F - 48.2 °F 30% 30.07 in 10.0 mi North 9.2 mph - N/A   Clear
1:35 PM 80.6 °F - 51.8 °F 37% 30.07 in 10.0 mi NNW 16.1 mph - N/A   Clear
1:55 PM 82.4 °F - 50.0 °F 32% 30.07 in 10.0 mi North 12.7 mph 19.6 mph N/A   Clear
2:15 PM 82.4 °F - 51.8 °F 35% 30.06 in 10.0 mi NNW 10.4 mph - N/A   Clear
2:35 PM 84.2 °F - 48.2 °F 29% 30.06 in 10.0 mi North 11.5 mph - N/A   Clear
2:55 PM 84.2 °F - 48.2 °F 29% 30.05 in 10.0 mi North 11.5 mph 16.1 mph N/A   Clear
3:15 PM 84.2 °F - 48.2 °F 29% 30.04 in 10.0 mi NNW 12.7 mph 16.1 mph N/A   Clear
3:35 PM 84.2 °F - 46.4 °F 27% 30.04 in 10.0 mi NNW 13.8 mph 18.4 mph N/A   Clear
3:55 PM 84.2 °F - 48.2 °F 29% 30.03 in 10.0 mi North 11.5 mph - N/A   Clear
4:15 PM 86.0 °F - 48.2 °F 27% 30.03 in 10.0 mi North 8.1 mph 17.3 mph N/A   Clear
4:35 PM 86.0 °F - 46.4 °F 25% 30.03 in 10.0 mi North 15.0 mph 19.6 mph N/A   Clear
4:55 PM 84.2 °F - 46.4 °F 27% 30.02 in 10.0 mi NW 8.1 mph - N/A   Clear
5:15 PM 86.0 °F - 44.6 °F 23% 30.02 in 10.0 mi North 16.1 mph - N/A   Clear
5:35 PM 86.0 °F - 44.6 °F 23% 30.02 in 10.0 mi North 13.8 mph 19.6 mph N/A   Clear
5:55 PM 84.2 °F - 44.6 °F 25% 30.02 in 10.0 mi North 12.7 mph - N/A   Clear
6:15 PM 84.2 °F - 44.6 °F 25% 30.02 in 10.0 mi North 12.7 mph - N/A   Clear
6:35 PM 84.2 °F - 46.4 °F 27% 30.02 in 10.0 mi North 12.7 mph - N/A   Clear
6:55 PM 82.4 °F - 48.2 °F 30% 30.03 in 10.0 mi North 10.4 mph - N/A   Clear
7:15 PM 80.6 °F - 48.2 °F 32% 30.03 in 10.0 mi NNE 11.5 mph - N/A   Clear
7:35 PM 77.0 °F - 50.0 °F 39% 30.03 in 10.0 mi NNE 8.1 mph - N/A   Clear
7:55 PM 71.6 °F - 53.6 °F 53% 30.04 in 10.0 mi NNE 6.9 mph - N/A   Clear
8:15 PM 69.8 °F - 53.6 °F 56% 30.04 in 10.0 mi NNE 6.9 mph - N/A   Clear
8:35 PM 68.0 °F - 55.4 °F 64% 30.05 in 10.0 mi NNE 5.8 mph - N/A   Clear
8:55 PM 66.2 °F - 55.4 °F 68% 30.05 in 10.0 mi NNE 4.6 mph - N/A   Clear
9:15 PM 66.2 °F - 55.4 °F 68% 30.06 in 10.0 mi NNE 4.6 mph - N/A   Clear
9:35 PM 66.2 °F - 55.4 °F 68% 30.07 in 10.0 mi NNE 4.6 mph - N/A   Clear
9:55 PM 66.2 °F - 55.4 °F 68% 30.08 in 10.0 mi Calm Calm - N/A   Clear
10:15 PM 64.4 °F - 57.2 °F 77% 30.09 in 10.0 mi Calm Calm - N/A   Clear
10:35 PM 66.2 °F - 55.4 °F 68% 30.09 in 10.0 mi NNE 3.5 mph - N/A   Clear
10:55 PM 66.2 °F - 55.4 °F 68% 30.09 in 10.0 mi Calm Calm - N/A   Clear
11:15 PM 64.4 °F - 55.4 °F 73% 30.10 in 10.0 mi Calm Calm - N/A   Clear
11:35 PM 62.6 °F - 55.4 °F 77% 30.10 in 10.0 mi Calm Calm - N/A   Clear
11:55 PM 62.6 °F - 55.4 °F 77% 30.10 in 10.0 mi Calm Calm - N/A   Clear